Probability
0 0 0 0 0 0 0 0 0 0 0 0 0 0 0 0 0 0 0 0 0 0 0 0 0 0 0 0 0 0 0 0 0 0 0 0 0 0 0 0 0 0 0 0
0 0 0 0 0 0 0 0 0 0 0 0 0 0 0 0 0 0 0 0 0 0 0 0 0 0 0 0 0 0 0 0 0 0 0 0 0 0 0 0 0 0 0 0
0 0 0 0 0 0 0 0 0 0 0 0 0 0 0 0 0 0 0 0 0 0 0 0 0 0 0 0 0 0 0 0 0 0 0 0 0 0 0 0 0 0 0 0
0 0 0 0 0 0 0 0 0 0 0 0 0 0 0 0 0 0 0 0 0 0 0 0 0 0 0 0 0 0 0 0 0 0 0 0 0 0 0 0 0 0 0 0
0 0 0 0 0 0 0 0 0 0 0 0 0 0 0 0 0 0 0 0 0 0 0 0 0 0 0 0 0 0 0 0 0 0 0 0 0 0 0 0 0 0 0 0
0 0 0 0 0 0 0 0 0 0 0 0 0 0 0 0 0 0 0 0 0 0 0 0 0 0 0 0 0 0 0 0 0 0 0 0 0 0 0 0 0 0 0 0
0 0 0 0 0 0 0 0 0 0 0 0 0 0 0 0 0 0 0 0 0 0 0 0 0 0 0 0 0 0 0 0 0 0 0 0 0 0 0 0 0 0 0 0
0 0 0 0 0 0 0 0 0 0 0 0 0 0 0 0 0 0 0 0 0 0 0 0 0 0 0 0 0 0 0 0 0 0 0 0 0 0 0 0 0 0 0 0
0 0 0 0 0 0 0 0 0 0 0 0 0 0 0 0 0 0 0 0 0 0 0 0 0 0 0 0 0 0 0 0 0 0 0 0 0 0 0 0 0 0 0 0
0 0 0 0 0 0 0 0 0 0 0 0 0 0 0 0 0 0 0 0 0 0 0 0 0 0 0 0 0 0 0 0 0 0 0 0 0 0 0 0 0 0 0 0
0 0 0 0 0 0 0 0 0 0 0 0 0 0 0 0 0 0 0 0 0 0 0 0 0 0 0 0 0 0 0 0 0 0 0 0 0 0 0 0 0 0 0 0
0 0 0 0 0 0 0 0 0 0 0 0 0 0 0 0 0 0 0 0 0 0 0 0 0 0 0 0 0 0 0 0 0 0 0 0 0 0 0 0 0 0 0 0
0 0 0 0 0 0 0 0 0 0 0 0 0 0 0 0 0 0 0 0 0 0 0 0 0 0 0 0 0 0 0 0 0 0 0 0 0 0 0 0 0 0 0 0
0 0 0 0 0 0 0 0 0 0 0 0 0 0 0 0 0 0 0 0 0 0 0 0 0 0 0 0 0 0 0 0 0 0 0 0 0 0 0 0 0 0 0 0
0 0 0 0 0 0 0 0 0 0 0 0 0 0 0 0 0 0 0 0 0 0 0 0 0 0 0 0 0 0 0 0 0 0 0 0 0 0 0 0 0 0 0 0
0 0 0 0 0 0 0 0 0 0 0 0 0 0 0 0 0 0 0 0 0 0 0 0 0 0 0 0 0 0 0 0 0 0 0 0 0 0 0 0 0 0 0 0
0 0 0 0 0 0 0 0 0 0 0 0 0 0 0 0 0 0 0 0 0 0 0 0 0 0 0 0 0 0 0 0 0 0 0 0 0 0 0 0 0 0 0 0
0 0 0 0 0 0 0 0 0 0 0 0 0 0 0 0 0 0 0 0 0 0 0 0 0 0 0 0 0 0 0 0 0 0 0 0 0 0 0 0 0 0 0 0
0 0 0 0 0 0 0 0 0 0 0 0 0 0 0 0 0 0 0 0 0 0 0 0 0 0 0 0 0 0 0 0 0 0 0 0 0 0 0 0 0 0 0 0
0 0 0 0 0 0 0 0 0 0 0 0 0 0 0 0 0 0 0 0 0 0 0 0 0 0 0 0 0 0 0 0 0 0 0 0 0 0 0 0 0 0 0 0
0 0 0 0 0 0 0 0 0 0 0 0 0 0 0 0 0 0 0 0 0 0 0 0 0 0 0 0 0 0 0 0 0 0 0 0 0 0 0 0 0 0 0 0
0 0 0 0 0 0 0 0 0 0 0 0 0 0 0 0 0 0 0 0 0 0 0 0 0 0 0 0 0 0 0 0 0 0 0 0 0 0 0 0 0 0 0 0
0 0 0 0 0 0 0 0 0 0 0 0 0 0 0 0 0 0 0 0 0 0 0 0 0 0 0 0 0 0 0 0 0 0 0 0 0 0 0 0 0 0 0 0
0 0 0 0 0 0 0 0 0 0 0 0 0 0 0 0 0 0 0 0 0 0 0 0 0 0 0 0 0 0 0 0 0 0 0 0 0 0 0 0 0 0 0 0
0 0 0 0 0 0 0 0 0 0 0 0 0 0 0 0 0 0 0 0 0 0 0 0 0 0 0 0 0 0 0 0 0 0 0 0 0 0 0 0 0 0 0 0
0 0 0 0 0 0 0 0 0 0 0 0 0 0 0 0 0 0 0 0 0 0 0 0 0 0 0 0 0 0 0 0 0 0 0 0 0 0 0 0 0 0 0 0
0 0 0 0 0 0 0 0 0 0 0 0 0 0 0 0 0 0 0 0 0 0 0 0 0 0 0 0 0 0 0 0 0 0 0 0 0 0 0 0 0 0 0 0
Wind_Speed
7 6 5 7 8 10 12 12 11 10 11 11 8 6 6 5 5 5 5 5 5 5 5 5 5 5 5 5 5 5 6 6 6 6 6 6 6 6 6 6 6 6 6 6
5 4 5 9 11 12 14 13 15 14 14 8 5 3 5 5 5 5 5 5 5 5 6 6 6 6 5 5 5 5 6 6 6 6 6 6 6 6 6 5 5 5 6 6
5 2 5 10 9 12 9 10 10 13 10 3 4 5 5 5 5 5 5 5 6 6 6 6 6 6 6 6 5 5 6 6 6 6 6 6 6 5 5 5 5 6 6 6
3 2 8 3 2 5 8 9 10 9 6 5 6 6 6 6 5 5 5 5 6 5 5 5 5 5 5 5 5 5 6 6 6 6 6 6 6 5 6 5 5 6 6 6
3 5 9 4 3 4 6 7 7 10 9 6 4 5 5 3 3 4 5 5 5 5 5 5 5 5 5 5 5 5 5 6 6 6 6 6 6 6 6 5 6 6 6 6
4 5 7 2 3 2 3 5 3 5 6 4 2 5 4 1 3 4 4 4 4 4 4 4 5 4 5 5 5 5 6 6 6 6 6 7 6 6 6 6 6 6 6 6
7 7 9 1 3 4 4 3 1 3 4 4 5 5 4 3 4 4 4 4 4 4 4 4 4 4 5 5 6 6 6 6 6 6 6 6 6 5 5 5 6 6 6 6
6 7 9 5 6 6 3 2 1 3 3 4 5 5 5 5 4 4 4 4 4 4 4 4 4 4 5 6 6 6 6 6 6 6 6 5 5 5 5 5 5 5 5 5
8 7 2 6 6 3 1 3 3 3 4 4 5 6 6 5 5 4 4 4 4 4 4 5 5 4 6 6 6 6 6 6 6 6 5 4 4 5 4 4 4 4 4 4
6 8 6 6 5 4 4 4 4 4 4 4 5 6 5 5 4 4 4 4 4 4 4 5 6 6 5 6 5 5 6 6 5 5 4 3 3 3 3 4 4 4 4 4
7 7 5 5 6 5 4 3 3 3 3 4 4 5 5 4 4 4 4 4 4 4 5 6 6 6 6 5 5 5 5 5 5 4 3 3 3 3 4 4 5 5 4 4
6 4 4 4 2 3 4 4 3 3 4 3 3 4 4 4 4 3 4 4 4 4 5 5 6 6 6 5 5 5 5 5 4 4 3 3 3 3 4 5 7 8 8 7
4 3 3 3 3 2 3 3 3 3 3 3 3 3 3 3 3 3 4 4 4 5 5 5 6 6 6 6 5 5 5 5 4 4 3 3 3 3 4 5 5 6 7 8
4 2 3 3 2 2 2 2 2 2 2 2 2 2 2 2 3 3 4 4 4 5 5 5 6 6 6 6 5 5 5 5 5 4 3 3 3 3 3 4 4 4 6 7
4 4 4 2 1 1 1 1 1 2 2 2 2 2 2 3 3 3 4 4 4 4 5 5 6 7 6 5 5 5 5 4 4 4 4 3 3 3 3 4 4 4 4 5
2 2 2 2 2 1 1 1 2 2 2 2 2 3 3 3 3 3 3 3 4 4 5 6 6 6 6 6 5 5 4 6 6 4 4 4 3 3 3 3 4 4 4 4
2 2 2 3 3 2 2 2 2 2 2 2 3 3 3 3 3 3 4 4 4 4 5 6 6 6 6 5 5 4 4 5 6 5 4 3 3 3 4 3 4 4 4 5
4 4 3 3 3 2 2 2 2 2 2 2 2 2 2 2 3 4 4 4 4 5 5 5 5 6 5 5 5 4 4 4 4 4 4 3 4 4 4 4 5 5 5 5
1 1 1 1 1 2 2 2 2 1 1 1 2 2 3 3 3 4 3 3 4 5 5 6 7 6 5 6 6 4 4 4 4 4 4 5 5 4 4 4 4 5 5 5
1 1 1 0 0 0 1 1 1 1 1 1 2 2 3 3 3 3 3 3 3 4 5 6 5 5 5 5 6 4 4 4 4 4 4 4 4 4 4 4 5 5 5 5
1 1 1 1 1 1 1 1 1 1 1 1 2 2 3 4 3 3 3 4 4 4 5 6 4 4 4 5 6 3 3 4 4 4 4 4 4 4 4 5 5 5 5 5
0 0 0 0 0 1 1 1 1 1 1 1 2 2 3 3 3 3 3 4 5 6 5 4 4 5 6 6 3 3 4 4 4 4 4 4 4 4 5 5 5 5 5 5
0 0 0 0 0 1 1 1 1 1 2 2 2 3 3 3 3 3 4 3 4 6 5 4 6 8 8 5 3 3 4 4 4 4 4 4 4 4 5 6 5 5 6 6
0 0 0 0 1 1 1 2 2 2 2 3 2 3 3 3 3 3 4 6 8 8 5 6 9 9 8 4 4 4 4 4 4 4 5 4 4 5 5 5 5 6 6 7
0 0 0 1 0 1 1 2 2 2 2 2 3 3 3 3 3 4 4 5 7 7 5 6 9 9 6 4 4 4 5 5 5 5 5 5 5 5 5 5 6 6 6 6
0 0 0 0 1 1 1 1 1 2 2 3 3 3 3 3 4 4 4 5 6 6 5 4 5 6 5 5 5 5 5 6 6 5 5 5 6 6 6 6 8 6 6 7
1 1 1 1 1 1 1 1 2 2 2 3 3 3 4 4 4 4 5 4 4 4 4 4 4 4 5 5 5 5 5 5 5 5 5 5 5 6 6 7 6 6 6 7
Wind_Direction
266 276 260 249 236 214 218 230 242 253 257 273 274 269 272 275 283 286 290 293 296 300 305 308 305 300 297 298 303 303 296 293 293 294 293 291 289 289 288 287 287 286 284 284
264 247 259 265 250 230 232 239 246 261 270 273 286 269 262 268 276 284 287 289 294 296 297 300 301 303 301 301 305 302 294 294 298 298 296 293 291 288 288 289 289 287 284 283
259 293 281 259 233 212 215 220 223 239 255 274 268 263 260 265 270 275 283 289 290 289 290 294 298 300 301 299 301 297 294 295 296 298 297 297 294 289 286 286 286 284 284 285
273 284 251 260 95 205 222 239 228 244 262 260 267 281 274 260 256 269 281 286 288 290 295 301 301 299 299 298 293 291 293 296 299 299 295 295 289 284 285 285 282 280 281 282
230 257 273 272 188 188 216 260 227 234 252 272 305 290 263 236 253 277 282 285 285 288 294 298 298 302 302 298 295 290 292 297 299 295 291 290 284 283 284 282 281 281 281 280
214 244 256 289 116 147 202 263 204 220 245 257 247 265 280 265 291 295 293 292 295 299 298 295 301 306 299 297 295 294 297 297 296 291 286 284 280 280 282 280 279 282 281 280
223 244 266 307 136 167 217 296 14 230 239 230 237 269 303 295 292 292 292 298 302 301 297 298 305 302 294 297 298 301 302 300 297 293 286 279 276 277 279 279 279 280 281 281
198 222 253 140 153 202 256 354 281 265 256 253 266 283 289 287 287 291 297 302 302 299 303 307 306 300 296 298 303 305 303 301 300 296 288 278 277 279 278 275 275 277 279 282
205 226 311 171 204 240 276 270 278 277 273 264 269 276 284 286 285 285 290 294 296 297 305 310 311 303 298 304 309 307 306 305 304 301 288 279 275 275 275 271 271 275 279 284
250 260 256 234 248 262 269 273 282 278 270 260 265 273 279 282 283 285 290 291 295 298 303 310 314 310 304 305 307 305 306 308 306 303 298 296 287 272 272 270 271 275 281 287
254 272 287 249 244 255 265 281 290 288 275 264 268 274 277 278 278 282 289 295 294 296 301 307 312 312 313 313 311 308 309 309 308 303 299 300 295 289 280 277 279 282 283 286
244 251 242 273 284 249 248 263 270 279 287 283 271 272 278 278 281 283 288 296 299 303 304 308 311 311 315 317 311 306 305 307 307 305 301 295 297 301 301 299 306 305 303 298
268 307 277 286 300 275 251 271 287 282 282 288 290 280 277 286 291 294 295 299 300 303 307 309 310 312 316 317 310 302 300 305 305 304 303 299 295 297 303 308 312 313 315 314
253 267 272 271 295 310 291 309 325 325 317 310 310 311 305 303 303 301 305 309 309 309 310 310 311 313 318 317 311 307 306 309 312 311 304 297 291 295 300 306 311 316 321 323
253 245 255 293 317 335 337 344 345 330 326 332 333 327 318 309 305 308 317 320 317 317 318 317 315 318 323 319 313 311 312 315 314 314 315 315 315 312 308 304 306 312 319 328
268 248 239 250 268 281 301 300 289 291 301 310 317 317 314 307 308 315 322 323 318 320 323 321 319 323 326 322 318 315 314 321 322 320 323 326 326 322 317 317 321 322 324 326
214 235 237 251 257 262 267 267 265 271 283 291 300 311 313 311 314 318 321 323 318 316 319 319 321 325 326 326 323 319 320 321 325 323 323 321 321 318 319 323 324 321 320 325
230 234 229 232 238 250 265 272 271 275 284 294 304 304 297 296 300 308 316 324 325 323 323 325 328 326 328 330 328 322 321 324 325 323 321 321 320 319 320 321 321 318 319 325
231 223 224 229 235 236 256 272 279 292 304 299 285 284 289 296 301 308 316 320 319 319 327 332 331 332 331 332 330 319 320 323 325 325 323 323 323 321 319 318 316 316 317 321
48 57 62 25 11 278 266 288 294 293 296 294 291 295 301 306 309 308 305 297 298 306 314 320 321 324 328 327 327 318 322 324 324 324 323 321 318 317 316 316 314 314 316 317
42 51 49 37 5 337 305 282 262 273 287 280 274 282 292 302 305 298 295 300 311 317 314 316 322 323 322 320 321 324 327 326 324 321 318 316 316 315 315 315 314 313 313 313
337 61 30 34 8 335 330 312 282 277 287 285 283 289 296 302 304 296 280 281 300 315 316 311 317 322 323 322 322 324 323 321 318 316 314 314 314 313 314 314 311 311 310 310
341 191 207 236 273 314 339 331 304 284 283 284 285 288 289 292 296 295 300 303 304 314 313 310 319 324 327 329 325 319 315 312 309 308 306 305 304 304 304 306 305 305 305 305
48 15 354 34 77 56 345 329 312 296 292 289 288 288 292 298 298 287 287 304 315 317 313 315 323 326 328 326 316 311 308 305 304 302 302 301 300 299 299 299 299 299 299 300
85 101 111 107 102 305 307 320 323 317 314 309 311 307 297 288 290 304 309 305 310 315 311 314 321 324 324 314 310 307 304 301 301 300 297 298 298 298 296 296 295 295 295 294
57 34 326 293 295 306 310 310 311 315 316 315 318 315 314 311 303 302 306 307 306 310 311 309 313 317 313 309 306 305 303 303 304 303 299 296 294 293 293 294 294 292 291 291
47 37 30 8 345 329 315 304 302 306 308 305 306 313 318 316 313 312 312 310 310 311 309 308 308 307 306 306 304 303 302 300 299 298 297 295 293 290 291 290 289 288 287 287